LARES 2

operational
NORAD ID: 53105 Int'l Des: 2022-080 Owner: ASI Country: I
MEOCIRCULAR

Über LARES 2

Beschreibung wird geladen...

Live-Position

3D-Globus wird geladen...

Nächste Überflüge

Höhenverlauf

Altitude vs Time

uPlot chart will show altitude changes over time

Zweizeiliger Elementsatz

1 53105U 22080A 26051.71998156 -.00000019 00000-0 00000+0 0 9996
2 53105 70.1780 345.2672 0005159 0.9590 359.1035 6.38965205 84227
Epoch: 20. Feb. 2026 • Age: 273 hours

Aktueller Status

Höhe 5902.8 km
Geschwindigkeit 5.70 km/s
Subsatellitenpunkt -24.82°S, 19.34°W
Startdatum 13. Juli 2022
Alter 3.6 years
Typ other

Technische Details

Klassifizierung Payload
Masse 295.00 kg
Trockenmasse 295.00 kg
Gesamtmasse 295.00 kg
Länge 0.42 m
Durchmesser 0.42 m
Spannweite 0.42 m
Form Sphere
Hersteller OHBI
Bus-Typ Lares
Phasenstatus In Orbit
Besitzer/Staat ASI/I

Große Konstellationen

Loading constellations...